| time (UTC) | temp F | wind direction | speed MPH | gust MPH | rain 1hr in | rain 24hr in | rain mn in | humidity % | barometer mb |
| 20260507134539 | 51 | 272 | 8.0 | 14.0 | 0.00 | 0.00 | 0.00 | 74 | 1017.4 |
| 20260507134014 | 51 | 287 | 6.0 | 14.0 | 0.00 | 0.00 | 0.00 | 76 | 1017.5 |
| 20260507133518 | 51 | 312 | 7.0 | 17.0 | 0.00 | 0.00 | 0.00 | 74 | 1017.6 |
| 20260507133038 | 50 | 272 | 9.0 | 15.0 | 0.00 | 0.00 | 0.00 | 75 | 1017.5 |
| 20260507132517 | 50 | 274 | 7.0 | 17.0 | 0.00 | 0.00 | 0.00 | 77 | 1017.5 |
| 20260507132014 | 50 | 294 | 9.0 | 17.0 | 0.00 | 0.00 | 0.00 | 76 | 1017.5 |
| 20260507131536 | 50 | 289 | 7.0 | 13.0 | 0.00 | 0.00 | 0.00 | 78 | 1017.7 |
| 20260507131014 | 49 | 274 | 8.0 | 14.0 | 0.00 | 0.00 | 0.00 | 78 | 1017.7 |
| 20260507130516 | 49 | 285 | 9.0 | 13.0 | 0.00 | 0.00 | 0.00 | 79 | 1017.6 |
| 20260507130054 | 48 | 275 | 8.0 | 12.0 | 0.00 | 0.00 | 0.00 | 80 | 1017.6 |
| 20260507125519 | 48 | 276 | 7.0 | 12.0 | 0.00 | 0.00 | 0.00 | 81 | 1017.5 |
| 20260507125015 | 47 | 287 | 8.0 | 15.0 | 0.00 | 0.00 | 0.00 | 82 | 1017.5 |
| 20260507124557 | 47 | 255 | 7.0 | 15.0 | 0.00 | 0.00 | 0.00 | 83 | 1017.5 |
| 20260507124015 | 47 | 275 | 8.0 | 13.0 | 0.00 | 0.00 | 0.00 | 83 | 1017.6 |
| 20260507123514 | 46 | 265 | 6.0 | 11.0 | 0.00 | 0.00 | 0.00 | 84 | 1017.6 |
| 20260507123046 | 46 | 275 | 6.0 | 11.0 | 0.00 | 0.00 | 0.00 | 84 | 1017.5 |
| 20260507122514 | 46 | 265 | 6.0 | 9.0 | 0.00 | 0.00 | 0.00 | 85 | 1017.4 |
| 20260507122012 | 46 | 264 | 5.0 | 10.0 | 0.00 | 0.00 | 0.00 | 85 | 1017.5 |
| 20260507121543 | 45 | 263 | 5.0 | 10.0 | 0.00 | 0.00 | 0.00 | 85 | 1017.6 |
| 20260507121013 | 45 | 265 | 5.0 | 10.0 | 0.00 | 0.00 | 0.00 | 85 | 1017.5 |
| 20260507120514 | 45 | 273 | 5.0 | 10.0 | 0.00 | 0.00 | 0.00 | 85 | 1017.5 |
| 20260507120045 | 45 | 265 | 5.0 | 9.0 | 0.00 | 0.00 | 0.00 | 85 | 1017.4 |
| 20260507115514 | 45 | 255 | 5.0 | 9.0 | 0.00 | 0.00 | 0.00 | 86 | 1017.5 |
| 20260507115014 | 45 | 264 | 5.0 | 9.0 | 0.00 | 0.00 | 0.00 | 86 | 1017.5 |
| 20260507114547 | 44 | 272 | 5.0 | 8.0 | 0.00 | 0.00 | 0.00 | 86 | 1017.6 |
| 20260507114014 | 44 | 257 | 4.0 | 8.0 | 0.00 | 0.00 | 0.00 | 85 | 1017.6 |
| 20260507113514 | 44 | 268 | 5.0 | 9.0 | 0.00 | 0.00 | 0.00 | 85 | 1017.6 |
| 20260507113045 | 44 | 260 | 6.0 | 9.0 | 0.00 | 0.00 | 0.00 | 86 | 1017.7 |
| 20260507112515 | 44 | 263 | 5.0 | 8.0 | 0.00 | 0.00 | 0.00 | 86 | 1017.5 |
| 20260507112013 | 44 | 270 | 6.0 | 9.0 | 0.00 | 0.00 | 0.00 | 85 | 1017.6 |
| 20260507111546 | 44 | 259 | 6.0 | 8.0 | 0.00 | 0.00 | 0.00 | 86 | 1017.6 |
| 20260507111014 | 44 | 267 | 5.0 | 8.0 | 0.00 | 0.00 | 0.00 | 86 | 1017.6 |
| 20260507110514 | 44 | 260 | 4.0 | 8.0 | 0.00 | 0.00 | 0.00 | 86 | 1017.7 |
| 20260507110049 | 44 | 257 | 5.0 | 8.0 | 0.00 | 0.00 | 0.00 | 86 | 1017.7 |
| 20260507105513 | 44 | 259 | 5.0 | 8.0 | 0.00 | 0.00 | 0.00 | 85 | 1017.8 |
| 20260507105014 | 45 | 247 | 4.0 | 7.0 | 0.00 | 0.00 | 0.00 | 85 | 1017.6 |
| 20260507104550 | 45 | 265 | 4.0 | 9.0 | 0.00 | 0.00 | 0.00 | 85 | 1017.8 |
| 20260507104016 | 45 | 265 | 5.0 | 9.0 | 0.00 | 0.00 | 0.00 | 85 | 1017.7 |
| 20260507103518 | 45 | 275 | 6.0 | 9.0 | 0.00 | 0.00 | 0.00 | 85 | 1017.8 |
| 20260507103044 | 45 | 254 | 5.0 | 8.0 | 0.00 | 0.00 | 0.00 | 85 | 1017.8 |
| 20260507102513 | 45 | 257 | 6.0 | 11.0 | 0.00 | 0.00 | 0.00 | 84 | 1017.7 |
| 20260507102017 | 45 | 255 | 7.0 | 11.0 | 0.00 | 0.00 | 0.00 | 84 | 1017.8 |
| 20260507101556 | 45 | 265 | 5.0 | 9.0 | 0.00 | 0.00 | 0.00 | 84 | 1017.9 |
| 20260507101021 | 45 | 266 | 6.0 | 9.0 | 0.00 | 0.00 | 0.00 | 84 | 1017.9 |
| 20260507100514 | 45 | 254 | 6.0 | 8.0 | 0.00 | 0.00 | 0.00 | 83 | 1018.0 |
| 20260507100055 | 45 | 265 | 5.0 | 10.0 | 0.00 | 0.00 | 0.00 | 83 | 1017.9 |
| 20260507095515 | 45 | 261 | 6.0 | 10.0 | 0.00 | 0.02 | 0.00 | 83 | 1018.0 |
| 20260507095014 | 46 | 259 | 6.0 | 9.0 | 0.00 | 0.02 | 0.00 | 83 | 1018.0 |
| 20260507094540 | 46 | 258 | 7.0 | 10.0 | 0.00 | 0.02 | 0.00 | 84 | 1018.0 |
| 20260507094013 | 46 | 262 | 6.0 | 10.0 | 0.00 | 0.02 | 0.00 | 83 | 1018.0 |
| 20260507093512 | 46 | 265 | 7.0 | 10.0 | 0.00 | 0.02 | 0.00 | 83 | 1018.0 |
| 20260507093039 | 46 | 257 | 6.0 | 10.0 | 0.00 | 0.02 | 0.00 | 83 | 1018.0 |
| 20260507092517 | 46 | 266 | 7.0 | 10.0 | 0.00 | 0.02 | 0.00 | 83 | 1018.1 |
| 20260507092016 | 46 | 264 | 4.0 | 8.0 | 0.00 | 0.02 | 0.00 | 83 | 1018.0 |
| 20260507091548 | 46 | 265 | 5.0 | 8.0 | 0.00 | 0.02 | 0.00 | 83 | 1018.1 |
| 20260507091013 | 46 | 260 | 5.0 | 9.0 | 0.00 | 0.02 | 0.00 | 83 | 1018.1 |
| 20260507090514 | 47 | 275 | 6.0 | 9.0 | 0.00 | 0.02 | 0.00 | 82 | 1018.1 |
| 20260507090049 | 47 | 270 | 7.0 | 9.0 | 0.00 | 0.02 | 0.00 | 83 | 1018.1 |
| 20260507085513 | 47 | 254 | 6.0 | 9.0 | 0.00 | 0.04 | 0.00 | 83 | 1018.0 |
| 20260507085016 | 47 | 274 | 6.0 | 9.0 | 0.00 | 0.04 | 0.00 | 83 | 1018.4 |
| 20260507084558 | 47 | 273 | 5.0 | 9.0 | 0.00 | 0.04 | 0.00 | 82 | 1018.4 |
| 20260507084015 | 47 | 261 | 7.0 | 10.0 | 0.00 | 0.04 | 0.00 | 82 | 1018.3 |
| 20260507083514 | 47 | 275 | 7.0 | 10.0 | 0.00 | 0.04 | 0.00 | 82 | 1018.4 |
| 20260507083103 | 47 | 276 | 7.0 | 11.0 | 0.00 | 0.04 | 0.00 | 82 | 1018.5 |
| 20260507082516 | 47 | 271 | 7.0 | 11.0 | 0.00 | 0.04 | 0.00 | 82 | 1018.6 |
| 20260507082015 | 47 | 273 | 6.0 | 10.0 | 0.00 | 0.04 | 0.00 | 82 | 1018.6 |
| 20260507081557 | 47 | 271 | 6.0 | 11.0 | 0.00 | 0.04 | 0.00 | 82 | 1018.6 |
| 20260507081015 | 47 | 281 | 7.0 | 11.0 | 0.00 | 0.04 | 0.00 | 82 | 1018.7 |
| 20260507080515 | 47 | 261 | 6.0 | 10.0 | 0.00 | 0.04 | 0.00 | 82 | 1018.7 |
| 20260507080047 | 47 | 273 | 6.0 | 9.0 | 0.00 | 0.04 | 0.00 | 82 | 1018.8 |
| 20260507075514 | 47 | 276 | 5.0 | 10.0 | 0.00 | 0.04 | 0.00 | 82 | 1018.9 |
| 20260507075016 | 47 | 278 | 4.0 | 10.0 | 0.00 | 0.04 | 0.00 | 81 | 1019.0 |
| 20260507074549 | 48 | 271 | 5.0 | 10.0 | 0.00 | 0.04 | 0.00 | 81 | 1019.0 |
| 20260507074015 | 47 | 299 | 6.0 | 9.0 | 0.00 | 0.04 | 0.00 | 82 | 1018.9 |
| 20260507073520 | 47 | 273 | 3.0 | 9.0 | 0.00 | 0.04 | 0.00 | 82 | 1019.1 |
| 20260507073053 | 47 | 298 | 4.0 | 9.0 | 0.00 | 0.04 | 0.00 | 82 | 1019.1 |
| 20260507072515 | 47 | 275 | 3.0 | 8.0 | 0.00 | 0.04 | 0.00 | 82 | 1019.0 |
| 20260507072016 | 47 | 280 | 3.0 | 7.0 | 0.00 | 0.04 | 0.00 | 81 | 1019.0 |
| 20260507071545 | 47 | 287 | 1.0 | 3.0 | 0.00 | 0.04 | 0.00 | 80 | 1019.2 |
| 20260507071014 | 47 | 284 | 1.0 | 6.0 | 0.00 | 0.04 | 0.00 | 80 | 1019.2 |
| 20260507070517 | 48 | 300 | 1.0 | 6.0 | 0.00 | 0.04 | 0.00 | 79 | 1019.3 |
| 20260507070046 | 48 | 299 | 2.0 | 7.0 | 0.00 | 0.04 | 0.00 | 79 | 1019.4 |
| 20260507065519 | 48 | 287 | 3.0 | 7.0 | 0.00 | 0.04 | 0.00 | 79 | 1019.5 |
| 20260507065016 | 48 | 284 | 2.0 | 8.0 | 0.00 | 0.04 | 0.00 | 79 | 1019.5 |
| 20260507064550 | 49 | 273 | 3.0 | 8.0 | 0.00 | 0.04 | 0.00 | 78 | 1019.5 |
| 20260507064015 | 49 | 279 | 3.0 | 9.0 | 0.00 | 0.04 | 0.00 | 78 | 1019.5 |
| 20260507063515 | 49 | 281 | 3.0 | 10.0 | 0.00 | 0.04 | 0.00 | 78 | 1019.5 |
| 20260507063047 | 49 | 275 | 5.0 | 10.0 | 0.00 | 0.04 | 0.00 | 77 | 1019.6 |
| 20260507062515 | 49 | 267 | 5.0 | 8.0 | 0.00 | 0.04 | 0.00 | 78 | 1019.6 |
| 20260507062201 | 49 | 279 | 4.0 | 8.0 | 0.00 | 0.04 | 0.00 | 77 | 1019.7 |
| 20260507061538 | 49 | 267 | 4.0 | 8.0 | 0.00 | 0.04 | 0.00 | 76 | 1019.5 |
| 20260507061014 | 49 | 269 | 3.0 | 6.0 | 0.00 | 0.04 | 0.00 | 76 | 1019.6 |
| 20260507060515 | 49 | 259 | 3.0 | 6.0 | 0.00 | 0.04 | 0.00 | 76 | 1019.5 |
| 20260507060039 | 49 | 268 | 2.0 | 3.0 | 0.00 | 0.04 | 0.00 | 76 | 1019.6 |
| 20260507055515 | 49 | 271 | 2.0 | 3.0 | 0.00 | 0.04 | 0.00 | 76 | 1019.6 |
| 20260507055015 | 49 | 261 | 2.0 | 3.0 | 0.00 | 0.04 | 0.00 | 76 | 1019.7 |
| 20260507054541 | 49 | 267 | 1.0 | 3.0 | 0.00 | 0.04 | 0.00 | 76 | 1019.8 |
| 20260507054015 | 49 | 279 | 1.0 | 3.0 | 0.00 | 0.04 | 0.00 | 75 | 1019.8 |
| 20260507053513 | 49 | 279 | 1.0 | 2.0 | 0.00 | 0.04 | 0.00 | 74 | 1019.9 |
| 20260507053045 | 50 | 279 | 0.0 | 2.0 | 0.00 | 0.04 | 0.00 | 72 | 1019.8 |
| 20260507052515 | 50 | 279 | 0.0 | 3.0 | 0.00 | 0.04 | 0.00 | 72 | 1019.9 |
| 20260507052013 | 51 | 279 | 0.0 | 3.0 | 0.00 | 0.04 | 0.00 | 72 | 1019.9 |
| 20260507051544 | 51 | 279 | 2.0 | 4.0 | 0.00 | 0.04 | 0.00 | 73 | 1019.9 |
| 20260507051015 | 51 | 274 | 2.0 | 4.0 | 0.00 | 0.04 | 0.00 | 73 | 1019.8 |
| 20260507050511 | 51 | 309 | 1.0 | 4.0 | 0.00 | 0.04 | 0.00 | 71 | 1019.9 |
| 20260507050040 | 51 | 307 | 1.0 | 4.0 | 0.00 | 0.04 | 0.00 | 71 | 1019.8 |
| 20260507045515 | 51 | 292 | 1.0 | 5.0 | 0.00 | 0.04 | 0.04 | 71 | 1019.8 |
| 20260507045017 | 51 | 275 | 2.0 | 8.0 | 0.00 | 0.04 | 0.04 | 71 | 1019.8 |
| 20260507044541 | 51 | 279 | 3.0 | 8.0 | 0.00 | 0.04 | 0.04 | 72 | 1019.9 |
| 20260507044018 | 51 | 276 | 4.0 | 6.0 | 0.00 | 0.04 | 0.04 | 72 | 1019.9 |
| 20260507043514 | 51 | 276 | 3.0 | 6.0 | 0.00 | 0.04 | 0.04 | 73 | 1019.9 |
| 20260507043049 | 51 | 269 | 3.0 | 4.0 | 0.00 | 0.04 | 0.04 | 74 | 1019.9 |
| 20260507042519 | 50 | 275 | 2.0 | 4.0 | 0.00 | 0.04 | 0.04 | 75 | 1020.0 |
| 20260507042015 | 50 | 300 | 0.0 | 2.0 | 0.00 | 0.04 | 0.04 | 74 | 1020.0 |
| 20260507041544 | 50 | 306 | 0.0 | 3.0 | 0.00 | 0.04 | 0.04 | 73 | 1019.9 |
| 20260507041015 | 50 | 303 | 0.0 | 3.0 | 0.00 | 0.04 | 0.04 | 73 | 1019.9 |
| 20260507040516 | 50 | 303 | 0.0 | 2.0 | 0.00 | 0.04 | 0.04 | 74 | 1019.9 |
| 20260507040043 | 50 | 276 | 0.0 | 2.0 | 0.00 | 0.04 | 0.04 | 74 | 1020.0 |
| 20260507035516 | 50 | 276 | 1.0 | 2.0 | 0.00 | 0.07 | 0.04 | 75 | 1019.9 |
| 20260507035016 | 50 | 276 | 0.0 | 1.0 | 0.00 | 0.07 | 0.04 | 74 | 1019.9 |
| 20260507034541 | 50 | 276 | 0.0 | 2.0 | 0.00 | 0.07 | 0.04 | 75 | 1019.8 |
| 20260507034018 | 50 | 276 | 0.0 | 2.0 | 0.00 | 0.07 | 0.04 | 76 | 1019.9 |
| 20260507033518 | 49 | 276 | 0.0 | 1.0 | 0.00 | 0.07 | 0.04 | 75 | 1019.9 |
| 20260507033039 | 49 | 276 | 0.0 | 1.0 | 0.00 | 0.07 | 0.04 | 74 | 1019.8 |
| 20260507032519 | 49 | 276 | 0.0 | 1.0 | 0.00 | 0.07 | 0.04 | 72 | 1019.8 |
| 20260507032016 | 50 | 276 | 0.0 | 2.0 | 0.00 | 0.07 | 0.04 | 71 | 1019.8 |
| 20260507031545 | 50 | 276 | 1.0 | 2.0 | 0.00 | 0.07 | 0.04 | 69 | 1019.8 |
| 20260507031020 | 51 | 276 | 1.0 | 2.0 | 0.00 | 0.07 | 0.04 | 67 | 1019.9 |
| 20260507030515 | 51 | 276 | 0.0 | 2.0 | 0.00 | 0.07 | 0.04 | 67 | 1019.8 |
| 20260507030037 | 51 | 276 | 0.0 | 3.0 | 0.00 | 0.07 | 0.04 | 67 | 1019.9 |
| 20260507025513 | 52 | 276 | 1.0 | 3.0 | 0.00 | 0.08 | 0.04 | 68 | 1019.7 |
| 20260507025016 | 52 | 273 | 1.0 | 4.0 | 0.00 | 0.08 | 0.04 | 69 | 1019.6 |
| 20260507024551 | 53 | 263 | 2.0 | 4.0 | 0.00 | 0.08 | 0.04 | 68 | 1019.6 |
| 20260507024016 | 53 | 259 | 2.0 | 3.0 | 0.00 | 0.08 | 0.04 | 69 | 1019.5 |
| 20260507023520 | 53 | 257 | 2.0 | 3.0 | 0.00 | 0.08 | 0.04 | 69 | 1019.5 |
| 20260507023051 | 53 | 271 | 1.0 | 3.0 | 0.00 | 0.08 | 0.04 | 68 | 1019.4 |
| 20260507022516 | 53 | 271 | 1.0 | 3.0 | 0.00 | 0.08 | 0.04 | 67 | 1019.4 |
| 20260507022014 | 52 | 271 | 0.0 | 3.0 | 0.00 | 0.08 | 0.04 | 68 | 1019.6 |
| 20260507021542 | 52 | 298 | 1.0 | 2.0 | 0.00 | 0.08 | 0.04 | 67 | 1019.6 |
| 20260507021018 | 52 | 298 | 0.0 | 2.0 | 0.00 | 0.08 | 0.04 | 65 | 1019.7 |
| 20260507020515 | 52 | 303 | 1.0 | 3.0 | 0.00 | 0.08 | 0.04 | 64 | 1019.7 |
| 20260507020052 | 51 | 305 | 1.0 | 3.0 | 0.00 | 0.08 | 0.04 | 64 | 1019.6 |
| 20260507015513 | 51 | 304 | 1.0 | 3.0 | 0.00 | 0.09 | 0.04 | 63 | 1019.6 |
| 20260507015015 | 52 | 304 | 1.0 | 3.0 | 0.00 | 0.09 | 0.04 | 63 | 1019.4 |
| 20260507014543 | 52 | 306 | 0.0 | 2.0 | 0.00 | 0.09 | 0.04 | 63 | 1019.3 |
| 20260507014016 | 52 | 302 | 0.0 | 2.0 | 0.00 | 0.09 | 0.04 | 62 | 1019.2 |
| 20260507013518 | 52 | 302 | 0.0 | 2.0 | 0.00 | 0.09 | 0.04 | 61 | 1019.2 |
| 20260507013048 | 52 | 302 | 1.0 | 3.0 | 0.00 | 0.09 | 0.04 | 61 | 1019.2 |
| 20260507012513 | 53 | 305 | 1.0 | 3.0 | 0.00 | 0.09 | 0.04 | 60 | 1019.2 |
| 20260507012014 | 53 | 305 | 1.0 | 3.0 | 0.00 | 0.09 | 0.04 | 59 | 1019.2 |
| 20260507011545 | 53 | 311 | 1.0 | 4.0 | 0.00 | 0.09 | 0.04 | 59 | 1019.0 |
| 20260507011012 | 54 | 315 | 1.0 | 3.0 | 0.00 | 0.09 | 0.04 | 58 | 1018.8 |
| 20260507010517 | 55 | 313 | 1.0 | 4.0 | 0.00 | 0.09 | 0.04 | 56 | 1018.9 |
| 20260507010044 | 55 | 323 | 2.0 | 6.0 | 0.00 | 0.09 | 0.04 | 55 | 1018.9 |
| 20260507005523 | 56 | 330 | 2.0 | 7.0 | 0.00 | 0.09 | 0.04 | 54 | 1018.9 |
| 20260507005015 | 56 | 315 | 2.0 | 5.0 | 0.00 | 0.09 | 0.04 | 52 | 1019.0 |
| 20260507004544 | 57 | 306 | 2.0 | 5.0 | 0.00 | 0.09 | 0.04 | 52 | 1018.9 |
| 20260507004014 | 57 | 309 | 1.0 | 8.0 | 0.00 | 0.09 | 0.04 | 53 | 1018.9 |
| 20260507003518 | 58 | 325 | 4.0 | 8.0 | 0.00 | 0.09 | 0.04 | 51 | 1019.0 |
| 20260507003039 | 58 | 320 | 2.0 | 6.0 | 0.00 | 0.09 | 0.04 | 51 | 1018.9 |
| 20260507002519 | 58 | 331 | 3.0 | 6.0 | 0.00 | 0.09 | 0.04 | 50 | 1018.8 |
| 20260507002015 | 58 | 327 | 3.0 | 8.0 | 0.00 | 0.09 | 0.04 | 51 | 1018.8 |
| 20260507001538 | 58 | 321 | 3.0 | 8.0 | 0.00 | 0.09 | 0.04 | 53 | 1018.9 |
| 20260507001016 | 57 | 346 | 3.0 | 5.0 | 0.00 | 0.09 | 0.04 | 52 | 1019.2 |
| 20260507000514 | 57 | 317 | 2.0 | 5.0 | 0.00 | 0.09 | 0.04 | 53 | 1019.2 |
| 20260507000053 | 57 | 338 | 2.0 | 6.0 | 0.00 | 0.09 | 0.04 | 53 | 1019.2 |
| 20260506235515 | 57 | 349 | 3.0 | 6.0 | 0.00 | 0.09 | 0.04 | 53 | 1019.2 |
| 20260506235016 | 57 | 355 | 2.0 | 5.0 | 0.00 | 0.09 | 0.04 | 53 | 1019.1 |
| 20260506234550 | 57 | 330 | 1.0 | 5.0 | 0.00 | 0.09 | 0.04 | 51 | 1019.1 |
| 20260506234014 | 58 | 355 | 2.0 | 5.0 | 0.00 | 0.09 | 0.04 | 51 | 1019.2 |
| 20260506233518 | 58 | 355 | 1.0 | 5.0 | 0.00 | 0.09 | 0.04 | 52 | 1019.2 |
| 20260506233048 | 58 | 29 | 3.0 | 8.0 | 0.00 | 0.09 | 0.04 | 50 | 1019.2 |
| 20260506232516 | 58 | 17 | 4.0 | 8.0 | 0.00 | 0.09 | 0.04 | 52 | 1019.3 |
| 20260506232014 | 58 | 345 | 4.0 | 8.0 | 0.00 | 0.09 | 0.04 | 50 | 1019.1 |
| 20260506231557 | 58 | 333 | 2.0 | 5.0 | 0.00 | 0.09 | 0.04 | 51 | 1019.1 |
| 20260506231015 | 58 | 307 | 3.0 | 5.0 | 0.00 | 0.09 | 0.04 | 53 | 1019.1 |
| 20260506230515 | 57 | 360 | 3.0 | 5.0 | 0.00 | 0.09 | 0.04 | 53 | 1019.2 |
| 20260506230051 | 57 | 22 | 2.0 | 5.0 | 0.00 | 0.09 | 0.04 | 52 | 1019.2 |
| 20260506225517 | 57 | 15 | 2.0 | 9.0 | 0.00 | 0.09 | 0.04 | 53 | 1019.4 |
| 20260506225016 | 57 | 355 | 4.0 | 9.0 | 0.00 | 0.09 | 0.04 | 53 | 1019.4 |
| 20260506224549 | 57 | 345 | 4.0 | 8.0 | 0.00 | 0.09 | 0.04 | 54 | 1019.3 |
| 20260506224016 | 57 | 10 | 3.0 | 8.0 | 0.00 | 0.09 | 0.04 | 51 | 1019.4 |
| 20260506223516 | 57 | 360 | 4.0 | 6.0 | 0.00 | 0.09 | 0.04 | 53 | 1019.3 |
| 20260506223052 | 57 | 20 | 3.0 | 9.0 | 0.00 | 0.09 | 0.04 | 53 | 1019.4 |
| 20260506222514 | 57 | 355 | 5.0 | 9.0 | 0.00 | 0.09 | 0.04 | 51 | 1019.3 |
| 20260506222020 | 57 | 360 | 3.0 | 6.0 | 0.00 | 0.09 | 0.04 | 54 | 1019.4 |
| 20260506221545 | 57 | 11 | 3.0 | 8.0 | 0.00 | 0.09 | 0.04 | 53 | 1019.4 |
| 20260506221019 | 57 | 335 | 5.0 | 8.0 | 0.00 | 0.09 | 0.04 | 52 | 1019.4 |
| 20260506220521 | 57 | 360 | 4.0 | 9.0 | 0.00 | 0.09 | 0.04 | 51 | 1019.5 |
| 20260506220045 | 58 | 347 | 4.0 | 9.0 | 0.00 | 0.09 | 0.04 | 51 | 1019.5 |
| 20260506215523 | 58 | 10 | 4.0 | 9.0 | 0.00 | 0.09 | 0.04 | 50 | 1019.5 |
| 20260506215016 | 58 | 30 | 5.0 | 9.0 | 0.00 | 0.09 | 0.04 | 50 | 1019.4 |
| 20260506214550 | 59 | 360 | 4.0 | 9.0 | 0.00 | 0.09 | 0.04 | 51 | 1019.4 |
| 20260506214016 | 59 | 340 | 3.0 | 10.0 | 0.00 | 0.09 | 0.04 | 49 | 1019.6 |
| 20260506213516 | 60 | 333 | 3.0 | 10.0 | 0.00 | 0.09 | 0.04 | 47 | 1019.6 |
| 20260506213104 | 60 | 23 | 3.0 | 7.0 | 0.00 | 0.09 | 0.04 | 49 | 1019.6 |
| 20260506212517 | 60 | 204 | 1.0 | 8.0 | 0.00 | 0.09 | 0.04 | 46 | 1019.7 |
| 20260506212014 | 60 | 24 | 1.0 | 9.0 | 0.00 | 0.09 | 0.04 | 46 | 1019.7 |
| 20260506211602 | 60 | 10 | 1.0 | 18.0 | 0.00 | 0.09 | 0.04 | 48 | 1019.7 |
| 20260506211017 | 60 | 330 | 4.0 | 18.0 | 0.00 | 0.09 | 0.04 | 52 | 1019.8 |
| 20260506210515 | 59 | 205 | 1.0 | 7.0 | 0.00 | 0.09 | 0.04 | 46 | 1019.7 |
| 20260506210047 | 59 | 98 | 4.0 | 9.0 | 0.00 | 0.09 | 0.04 | 48 | 1019.8 |
| 20260506205514 | 59 | 48 | 2.0 | 10.0 | 0.00 | 0.09 | 0.04 | 49 | 1019.9 |
| 20260506205016 | 59 | 350 | 3.0 | 11.0 | 0.00 | 0.09 | 0.04 | 50 | 1020.0 |
| 20260506204550 | 59 | 324 | 4.0 | 11.0 | 0.00 | 0.09 | 0.04 | 50 | 1020.0 |
| 20260506204018 | 59 | 344 | 4.0 | 10.0 | 0.00 | 0.09 | 0.04 | 50 | 1020.0 |
| 20260506203516 | 58 | 11 | 4.0 | 10.0 | 0.00 | 0.09 | 0.04 | 50 | 1020.2 |
| 20260506203047 | 58 | 355 | 2.0 | 10.0 | 0.00 | 0.09 | 0.04 | 55 | 1020.4 |
| 20260506202518 | 57 | 11 | 6.0 | 10.0 | 0.00 | 0.09 | 0.04 | 51 | 1020.4 |
| 20260506202217 | 57 | 11 | 4.0 | 10.0 | 0.00 | 0.09 | 0.04 | 54 | 1020.4 |
| 20260506201538 | 58 | 47 | 6.0 | 10.0 | 0.00 | 0.09 | 0.04 | 51 | 1020.4 |
| 20260506201012 | 58 | 37 | 5.0 | 9.0 | 0.00 | 0.09 | 0.04 | 54 | 1020.4 |
| 20260506200509 | 57 | 83 | 2.0 | 9.0 | 0.00 | 0.09 | 0.04 | 54 | 1020.6 |
| 20260506200032 | 57 | 61 | 3.0 | 10.0 | 0.00 | 0.09 | 0.04 | 49 | 1020.5 |
| 20260506195509 | 58 | 137 | 4.0 | 10.0 | 0.00 | 0.09 | 0.04 | 50 | 1020.7 |
| 20260506195011 | 58 | 82 | 3.0 | 6.0 | 0.00 | 0.09 | 0.04 | 51 | 1020.8 |
| 20260506194532 | 58 | 18 | 0.0 | 6.0 | 0.00 | 0.09 | 0.04 | 45 | 1020.8 |
| 20260506194013 | 59 | 335 | 3.0 | 6.0 | 0.00 | 0.09 | 0.04 | 51 | 1020.8 |
| 20260506193509 | 58 | 270 | 1.0 | 6.0 | 0.00 | 0.09 | 0.04 | 47 | 1021.0 |
| 20260506193031 | 58 | 339 | 0.0 | 9.0 | 0.00 | 0.09 | 0.04 | 47 | 1021.1 |
| 20260506192510 | 58 | 349 | 3.0 | 10.0 | 0.00 | 0.09 | 0.04 | 50 | 1021.1 |
| 20260506192011 | 58 | 360 | 4.0 | 10.0 | 0.00 | 0.09 | 0.04 | 51 | 1021.0 |
| 20260506191535 | 58 | 350 | 4.0 | 11.0 | 0.00 | 0.09 | 0.04 | 50 | 1021.0 |
| 20260506191012 | 57 | 9 | 5.0 | 11.0 | 0.00 | 0.09 | 0.04 | 50 | 1020.9 |
| 20260506190516 | 57 | 338 | 2.0 | 9.0 | 0.00 | 0.09 | 0.04 | 51 | 1020.9 |
| 20260506190030 | 56 | 24 | 2.0 | 8.0 | 0.00 | 0.09 | 0.04 | 47 | 1021.0 |
| 20260506185511 | 57 | 72 | 2.0 | 8.0 | 0.00 | 0.09 | 0.04 | 52 | 1020.9 |
| 20260506185014 | 57 | 121 | 2.0 | 10.0 | 0.00 | 0.09 | 0.04 | 46 | 1020.9 |
| 20260506184529 | 57 | 135 | 2.0 | 10.0 | 0.00 | 0.09 | 0.04 | 47 | 1021.0 |
| 20260506184016 | 57 | 80 | 4.0 | 8.0 | 0.00 | 0.09 | 0.04 | 52 | 1021.1 |
| 20260506183510 | 56 | 208 | 2.0 | 8.0 | 0.00 | 0.09 | 0.04 | 50 | 1021.1 |
| 20260506183041 | 56 | 99 | 4.0 | 9.0 | 0.00 | 0.09 | 0.04 | 53 | 1021.2 |
| 20260506182511 | 56 | 53 | 0.0 | 4.0 | 0.00 | 0.09 | 0.04 | 46 | 1021.1 |
| 20260506182012 | 56 | 166 | 1.0 | 5.0 | 0.00 | 0.09 | 0.04 | 45 | 1021.1 |
| 20260506181532 | 56 | 119 | 2.0 | 8.0 | 0.00 | 0.09 | 0.04 | 45 | 1021.2 |
| 20260506181013 | 56 | 86 | 3.0 | 12.0 | 0.00 | 0.09 | 0.04 | 52 | 1021.1 |
| 20260506180513 | 56 | 43 | 5.0 | 12.0 | 0.00 | 0.09 | 0.04 | 50 | 1021.1 |
| 20260506180030 | 55 | 29 | 5.0 | 10.0 | 0.00 | 0.09 | 0.04 | 55 | 1021.4 |
| 20260506175512 | 55 | 71 | 4.0 | 9.0 | 0.00 | 0.09 | 0.04 | 47 | 1021.3 |
| 20260506175010 | 55 | 51 | 4.0 | 9.0 | 0.00 | 0.09 | 0.04 | 49 | 1021.3 |
| 20260506174531 | 55 | 73 | 3.0 | 9.0 | 0.00 | 0.09 | 0.04 | 45 | 1021.3 |
| 20260506174011 | 56 | 59 | 3.0 | 9.0 | 0.00 | 0.09 | 0.04 | 52 | 1021.2 |
| 20260506173511 | 56 | 17 | 4.0 | 9.0 | 0.00 | 0.09 | 0.04 | 50 | 1021.1 |
| 20260506173031 | 56 | 315 | 0.0 | 10.0 | 0.00 | 0.09 | 0.04 | 48 | 1021.4 |
| 20260506172513 | 55 | 79 | 6.0 | 10.0 | 0.00 | 0.09 | 0.04 | 52 | 1021.6 |
| 20260506172011 | 55 | 84 | 2.0 | 5.0 | 0.00 | 0.09 | 0.04 | 51 | 1021.6 |
| 20260506171538 | 55 | 90 | 1.0 | 11.0 | 0.00 | 0.09 | 0.04 | 52 | 1021.7 |
| 20260506171017 | 55 | 61 | 4.0 | 11.0 | 0.00 | 0.09 | 0.04 | 53 | 1021.7 |
| 20260506170515 | 55 | 44 | 5.0 | 11.0 | 0.00 | 0.09 | 0.04 | 52 | 1021.6 |
| 20260506170046 | 55 | 40 | 2.0 | 9.0 | 0.00 | 0.09 | 0.04 | 54 | 1021.7 |
| 20260506165513 | 55 | 5 | 3.0 | 6.0 | 0.00 | 0.09 | 0.04 | 57 | 1021.6 |
| 20260506165014 | 54 | 142 | 1.0 | 4.0 | 0.00 | 0.09 | 0.04 | 55 | 1021.6 |
| 20260506164530 | 54 | 19 | 1.0 | 6.0 | 0.00 | 0.09 | 0.04 | 59 | 1021.7 |
| 20260506164016 | 54 | 35 | 3.0 | 7.0 | 0.00 | 0.09 | 0.04 | 64 | 1021.7 |
| 20260506163511 | 53 | 16 | 4.0 | 7.0 | 0.00 | 0.09 | 0.04 | 61 | 1021.7 |
| 20260506163035 | 53 | 141 | 2.0 | 13.0 | 0.00 | 0.09 | 0.04 | 54 | 1021.8 |
| 20260506162511 | 53 | 21 | 7.0 | 13.0 | 0.00 | 0.09 | 0.04 | 60 | 1021.7 |
| 20260506162016 | 53 | 46 | 5.0 | 10.0 | 0.00 | 0.09 | 0.04 | 60 | 1021.6 |
| 20260506161533 | 52 | 360 | 1.0 | 4.0 | 0.00 | 0.09 | 0.04 | 64 | 1021.6 |
| 20260506161013 | 52 | 339 | 1.0 | 4.0 | 0.00 | 0.09 | 0.04 | 65 | 1021.7 |
| 20260506160510 | 52 | 351 | 1.0 | 4.0 | 0.00 | 0.09 | 0.04 | 68 | 1021.7 |
| 20260506160039 | 51 | 306 | 0.0 | 6.0 | 0.00 | 0.09 | 0.04 | 72 | 1021.6 |
| 20260506155510 | 51 | 329 | 3.0 | 6.0 | 0.00 | 0.09 | 0.04 | 75 | 1021.6 |
| 20260506155013 | 50 | 25 | 1.0 | 8.0 | 0.00 | 0.09 | 0.04 | 77 | 1021.6 |
| 20260506154534 | 50 | 322 | 3.0 | 9.0 | 0.00 | 0.09 | 0.04 | 81 | 1021.4 |
| 20260506154013 | 50 | 327 | 4.0 | 9.0 | 0.00 | 0.09 | 0.04 | 81 | 1021.4 |
| 20260506153511 | 50 | 309 | 5.0 | 9.0 | 0.00 | 0.09 | 0.04 | 82 | 1021.3 |
| 20260506153030 | 50 | 355 | 5.0 | 9.0 | 0.00 | 0.09 | 0.04 | 84 | 1021.5 |
| 20260506152511 | 49 | 345 | 3.0 | 8.0 | 0.00 | 0.09 | 0.04 | 83 | 1021.6 |
| 20260506152015 | 49 | 319 | 4.0 | 9.0 | 0.00 | 0.09 | 0.04 | 84 | 1021.6 |
| 20260506151537 | 49 | 327 | 4.0 | 9.0 | 0.00 | 0.09 | 0.04 | 84 | 1021.7 |
| 20260506151014 | 49 | 323 | 3.0 | 8.0 | 0.00 | 0.09 | 0.04 | 85 | 1021.8 |
| 20260506150513 | 48 | 303 | 3.0 | 8.0 | 0.00 | 0.09 | 0.04 | 85 | 1021.7 |
| 20260506150035 | 48 | 340 | 4.0 | 8.0 | 0.00 | 0.09 | 0.04 | 86 | 1021.6 |
| 20260506145514 | 48 | 311 | 3.0 | 5.0 | 0.00 | 0.09 | 0.04 | 88 | 1021.5 |
| 20260506145013 | 48 | 298 | 2.0 | 5.0 | 0.00 | 0.09 | 0.04 | 89 | 1021.4 |
| 20260506144538 | 48 | 331 | 3.0 | 8.0 | 0.00 | 0.09 | 0.04 | 90 | 1021.4 |
| 20260506144014 | 48 | 322 | 2.0 | 8.0 | 0.00 | 0.09 | 0.04 | 91 | 1021.5 |
| 20260506143511 | 48 | 300 | 3.0 | 5.0 | 0.00 | 0.09 | 0.04 | 92 | 1021.4 |
| 20260506143035 | 47 | 300 | 3.0 | 5.0 | 0.00 | 0.09 | 0.04 | 91 | 1021.5 |
| 20260506142516 | 47 | 317 | 3.0 | 5.0 | 0.00 | 0.09 | 0.04 | 92 | 1021.5 |
| 20260506142013 | 47 | 322 | 3.0 | 6.0 | 0.00 | 0.09 | 0.04 | 92 | 1021.4 |
| 20260506141529 | 47 | 320 | 3.0 | 5.0 | 0.00 | 0.09 | 0.04 | 92 | 1021.3 |
| 20260506141014 | 47 | 311 | 2.0 | 5.0 | 0.00 | 0.09 | 0.04 | 92 | 1021.2 |
| 20260506140514 | 47 | 317 | 3.0 | 5.0 | 0.00 | 0.09 | 0.04 | 93 | 1021.1 |
| 20260506140034 | 47 | 261 | 2.0 | 4.0 | 0.00 | 0.09 | 0.04 | 93 | 1021.1 |
| 20260506135515 | 47 | 323 | 2.0 | 4.0 | 0.00 | 0.09 | 0.04 | 93 | 1020.9 |
| 20260506135010 | 47 | 309 | 1.0 | 4.0 | 0.00 | 0.09 | 0.04 | 93 | 1021.0 |